NOVO254 LTBA-LTAC

Flight info

Callsign NOVO254
Flight time 0h 53m
Altitude 7000
Route VICEN1A/05 VICEN T380 ASMAP L333 LATGA DCT LTAC
Aircraft TBM9/L-SB3/S

Departure

Time 2026-05-06 19:18
Airport İstanbul Atatürk Airport (LTBA)

Arrival

Time 2026-05-06 20:12
Airport Esenboğa International Airport (LTAC)
Time Latitude Longitude Altitude Speed Heading
2026-05-06 19:02 40.96970 28.82532 106 ft 0 kts 327°
2026-05-06 19:13 40.96960 28.82540 106 ft 2 kts 327°
2026-05-06 19:13 40.96946 28.82552 113 ft 2 kts 327°
2026-05-06 19:13 40.96933 28.82564 106 ft 2 kts 324°
2026-05-06 19:14 40.96924 28.82576 106 ft 0 kts 274°
2026-05-06 19:14 40.96924 28.82572 106 ft 4 kts 273°
2026-05-06 19:14 40.96901 28.82507 106 ft 10 kts 267°
2026-05-06 19:14 40.96955 28.82448 106 ft 12 kts 330°
2026-05-06 19:15 40.96997 28.82357 107 ft 14 kts 249°
2026-05-06 19:15 40.96942 28.82237 107 ft 17 kts 239°
2026-05-06 19:15 40.96880 28.82096 107 ft 19 kts 236°
2026-05-06 19:15 40.96808 28.81944 107 ft 20 kts 238°
2026-05-06 19:16 40.96730 28.81776 107 ft 22 kts 238°
2026-05-06 19:16 40.96647 28.81597 108 ft 24 kts 238°
2026-05-06 19:16 40.96559 28.81405 108 ft 25 kts 240°
2026-05-06 19:16 40.96488 28.81222 108 ft 19 kts 272°
2026-05-06 19:17 40.96492 28.81149 108 ft 1 kts 278°
2026-05-06 19:17 40.96502 28.81096 108 ft 12 kts 297°
2026-05-06 19:17 40.96595 28.81072 107 ft 19 kts 41°
2026-05-06 19:18 40.96768 28.81427 109 ft 78 kts 58°
2026-05-06 19:18 40.97112 28.82176 402 ft 105 kts 58°
2026-05-06 19:18 40.97505 28.83045 966 ft 110 kts 57°
2026-05-06 19:18 40.97912 28.83910 1568 ft 113 kts 57°
2026-05-06 19:19 40.98328 28.84807 2123 ft 116 kts 57°
2026-05-06 19:19 40.98760 28.85735 2618 ft 120 kts 56°
2026-05-06 19:19 40.99196 28.86679 3093 ft 128 kts 55°
2026-05-06 19:19 40.99702 28.87767 3449 ft 144 kts 55°
2026-05-06 19:20 41.00221 28.88896 4007 ft 144 kts 54°
2026-05-06 19:20 41.00744 28.90028 4572 ft 145 kts 52°
2026-05-06 19:20 41.01275 28.91178 5129 ft 147 kts 51°
2026-05-06 19:20 41.01803 28.92325 5705 ft 145 kts 51°
2026-05-06 19:21 41.02330 28.93466 6273 ft 145 kts 50°
2026-05-06 19:21 41.02855 28.94604 6826 ft 145 kts 50°
2026-05-06 19:21 41.03380 28.95743 7372 ft 145 kts 51°
2026-05-06 19:21 41.03907 28.96886 7895 ft 146 kts 51°
2026-05-06 19:22 41.04435 28.98033 8425 ft 146 kts 51°
2026-05-06 19:22 41.04964 28.99182 8948 ft 149 kts 51°
2026-05-06 19:22 41.05567 29.00470 9005 ft 180 kts 52°
2026-05-06 19:22 41.06271 29.01995 9005 ft 206 kts 53°
2026-05-06 19:23 41.07044 29.03688 9003 ft 222 kts 53°
2026-05-06 19:23 41.07844 29.05502 8999 ft 234 kts 59°
2026-05-06 19:23 41.08306 29.07631 8983 ft 247 kts 77°
2026-05-06 19:23 41.08288 29.09947 8984 ft 259 kts 95°
2026-05-06 19:24 41.07715 29.12261 8983 ft 271 kts 114°
2026-05-06 19:24 41.06576 29.14292 8986 ft 280 kts 134°
2026-05-06 19:24 41.05060 29.15929 8987 ft 282 kts 140°
2026-05-06 19:24 41.03521 29.17550 8985 ft 284 kts 140°
2026-05-06 19:25 41.01980 29.19189 8984 ft 284 kts 140°
2026-05-06 19:25 41.00506 29.20928 8984 ft 284 kts 134°
2026-05-06 19:25 40.99091 29.22748 8984 ft 284 kts 134°
2026-05-06 19:25 40.97659 29.24558 8984 ft 285 kts 135°
2026-05-06 19:26 40.96224 29.26360 8983 ft 284 kts 135°
2026-05-06 19:26 40.94814 29.28140 8983 ft 284 kts 135°
2026-05-06 19:26 40.93387 29.29941 8982 ft 284 kts 135°
2026-05-06 19:26 40.91959 29.31741 8982 ft 283 kts 135°
2026-05-06 19:27 40.90542 29.33552 8981 ft 283 kts 132°
2026-05-06 19:27 40.89229 29.35477 8981 ft 282 kts 130°
2026-05-06 19:27 40.87970 29.37454 8977 ft 280 kts 120°
2026-05-06 19:27 40.87346 29.39836 8969 ft 273 kts 94°
2026-05-06 19:28 40.87178 29.42328 8971 ft 273 kts 92°
2026-05-06 19:28 40.86869 29.44811 8972 ft 275 kts 99°
2026-05-06 19:28 40.86370 29.47258 8973 ft 276 kts 102°
2026-05-06 19:28 40.85885 29.49706 8975 ft 275 kts 100°
2026-05-06 19:29 40.85454 29.52171 8975 ft 276 kts 99°
2026-05-06 19:29 40.85017 29.54638 8981 ft 276 kts 101°
2026-05-06 19:29 40.84564 29.57093 8982 ft 275 kts 101°
2026-05-06 19:29 40.84113 29.59546 8981 ft 274 kts 101°
2026-05-06 19:30 40.83668 29.61993 8979 ft 274 kts 101°
2026-05-06 19:30 40.83221 29.64438 8980 ft 274 kts 101°
2026-05-06 19:30 40.82773 29.66886 8981 ft 274 kts 101°
2026-05-06 19:30 40.82325 29.69334 8980 ft 274 kts 101°
2026-05-06 19:31 40.81873 29.71781 8980 ft 274 kts 101°
2026-05-06 19:31 40.81425 29.74225 8984 ft 274 kts 101°
2026-05-06 19:31 40.80524 29.79112 8983 ft 274 kts 101°
2026-05-06 19:32 40.80073 29.81555 8981 ft 274 kts 101°
2026-05-06 19:32 40.79623 29.83998 8984 ft 275 kts 101°
2026-05-06 19:32 40.79170 29.86447 8985 ft 275 kts 101°
2026-05-06 19:32 40.78715 29.88897 8983 ft 275 kts 101°
2026-05-06 19:33 40.78260 29.91343 8982 ft 275 kts 101°
2026-05-06 19:33 40.77806 29.93790 8980 ft 275 kts 101°
2026-05-06 19:33 40.77352 29.96238 8981 ft 275 kts 101°
2026-05-06 19:33 40.76895 29.98685 8981 ft 274 kts 102°
2026-05-06 19:34 40.76438 30.01129 9008 ft 274 kts 101°
2026-05-06 19:34 40.75989 30.03540 9008 ft 275 kts 102°
2026-05-06 19:34 40.75532 30.05986 9008 ft 275 kts 102°
2026-05-06 19:34 40.75069 30.08463 9009 ft 275 kts 102°
2026-05-06 19:35 40.74609 30.10908 9011 ft 275 kts 102°
2026-05-06 19:35 40.74156 30.13351 9008 ft 274 kts 102°
2026-05-06 19:35 40.73692 30.15794 9008 ft 274 kts 102°
2026-05-06 19:35 40.73238 30.18201 9007 ft 274 kts 102°
2026-05-06 19:36 40.72780 30.20642 9009 ft 274 kts 102°
2026-05-06 19:36 40.72320 30.23080 9007 ft 274 kts 102°
2026-05-06 19:36 40.71860 30.25519 9005 ft 274 kts 102°
2026-05-06 19:36 40.71398 30.27956 9003 ft 274 kts 102°
2026-05-06 19:37 40.70937 30.30396 9002 ft 274 kts 102°
2026-05-06 19:37 40.70474 30.32836 9000 ft 274 kts 102°
2026-05-06 19:37 40.70011 30.35275 8999 ft 274 kts 102°
2026-05-06 19:37 40.69698 30.36923 8998 ft 274 kts 102°
2026-05-06 19:38 40.69086 30.40150 9000 ft 274 kts 103°
2026-05-06 19:38 40.68621 30.42588 8996 ft 274 kts 103°
2026-05-06 19:38 40.68156 30.45025 8995 ft 274 kts 103°
2026-05-06 19:38 40.67690 30.47462 8993 ft 274 kts 103°
2026-05-06 19:39 40.67225 30.49898 8991 ft 274 kts 103°
2026-05-06 19:39 40.66758 30.52335 8992 ft 274 kts 103°
2026-05-06 19:39 40.66292 30.54768 8991 ft 274 kts 103°
2026-05-06 19:39 40.65824 30.57202 8991 ft 274 kts 103°
2026-05-06 19:40 40.65358 30.59635 8988 ft 274 kts 103°
2026-05-06 19:40 40.64890 30.62067 8988 ft 274 kts 103°
2026-05-06 19:40 40.64420 30.64501 8997 ft 274 kts 103°
2026-05-06 19:40 40.63951 30.66934 8997 ft 274 kts 103°
2026-05-06 19:41 40.63482 30.69367 8990 ft 274 kts 103°
2026-05-06 19:41 40.62998 30.71797 8988 ft 274 kts 105°
2026-05-06 19:41 40.62472 30.74208 8994 ft 274 kts 104°
2026-05-06 19:41 40.61979 30.76630 8994 ft 273 kts 103°
2026-05-06 19:42 40.61480 30.79046 8999 ft 273 kts 104°
2026-05-06 19:42 40.60967 30.81460 8996 ft 274 kts 104°
2026-05-06 19:42 40.60452 30.83864 8993 ft 273 kts 104°
2026-05-06 19:42 40.59945 30.86268 8997 ft 273 kts 104°
2026-05-06 19:43 40.59438 30.88674 8987 ft 273 kts 104°
2026-05-06 19:43 40.58928 30.91077 8992 ft 273 kts 104°
2026-05-06 19:43 40.58418 30.93479 8993 ft 272 kts 104°
2026-05-06 19:43 40.57907 30.95875 9003 ft 272 kts 104°
2026-05-06 19:44 40.57398 30.98277 9001 ft 273 kts 104°
2026-05-06 19:44 40.56886 31.00676 8999 ft 272 kts 105°
2026-05-06 19:44 40.56374 31.03073 9002 ft 272 kts 104°
2026-05-06 19:44 40.55863 31.05473 9002 ft 273 kts 105°
2026-05-06 19:45 40.55348 31.07877 9007 ft 273 kts 105°
2026-05-06 19:45 40.54834 31.10282 9004 ft 273 kts 104°
2026-05-06 19:45 40.54320 31.12679 9007 ft 272 kts 105°
2026-05-06 19:45 40.53805 31.15076 8994 ft 272 kts 104°
2026-05-06 19:46 40.53293 31.17463 9002 ft 271 kts 104°
2026-05-06 19:46 40.52781 31.19851 9008 ft 272 kts 105°
2026-05-06 19:46 40.52266 31.22243 9008 ft 272 kts 105°
2026-05-06 19:46 40.51935 31.23776 9008 ft 272 kts 105°
2026-05-06 19:47 40.51650 31.25092 9008 ft 272 kts 105°
2026-05-06 19:47 40.51136 31.27472 9008 ft 271 kts 105°
2026-05-06 19:47 40.50621 31.29849 9012 ft 270 kts 105°
2026-05-06 19:47 40.50107 31.32227 9020 ft 270 kts 105°
2026-05-06 19:48 40.49593 31.34598 9018 ft 270 kts 106°
2026-05-06 19:48 40.49080 31.36965 9018 ft 269 kts 106°
2026-05-06 19:48 40.48568 31.39323 9015 ft 268 kts 106°
2026-05-06 19:48 40.48055 31.41680 9017 ft 268 kts 106°
2026-05-06 19:49 40.47542 31.44033 9020 ft 268 kts 106°
2026-05-06 19:49 40.47029 31.46386 9020 ft 268 kts 106°
2026-05-06 19:49 40.46517 31.48736 9020 ft 268 kts 106°
2026-05-06 19:49 40.46005 31.51089 9021 ft 268 kts 106°
2026-05-06 19:50 40.45491 31.53440 9021 ft 268 kts 107°
2026-05-06 19:50 40.45153 31.54994 9023 ft 267 kts 107°
2026-05-06 19:50 40.44642 31.57331 9022 ft 266 kts 107°
2026-05-06 19:50 40.44132 31.59663 9022 ft 265 kts 107°
2026-05-06 19:51 40.43622 31.61986 9024 ft 265 kts 107°
2026-05-06 19:51 40.43113 31.64306 9025 ft 264 kts 107°
2026-05-06 19:51 40.42786 31.65799 9027 ft 264 kts 107°
2026-05-06 19:51 40.42294 31.68042 9027 ft 264 kts 107°
2026-05-06 19:52 40.41950 31.69605 9024 ft 264 kts 107°
2026-05-06 19:52 40.41440 31.71919 9024 ft 264 kts 107°
2026-05-06 19:52 40.40932 31.74233 9024 ft 264 kts 107°
2026-05-06 19:52 40.40421 31.76545 9024 ft 264 kts 107°
2026-05-06 19:53 40.40068 31.78142 9022 ft 264 kts 107°
2026-05-06 19:53 40.40018 31.78369 9025 ft 264 kts 107°
2026-05-06 19:53 40.39536 31.80547 9026 ft 264 kts 107°
2026-05-06 19:53 40.39022 31.82857 9025 ft 264 kts 107°
2026-05-06 19:54 40.38509 31.85169 9023 ft 264 kts 107°
2026-05-06 19:54 40.37995 31.87481 9023 ft 264 kts 107°
2026-05-06 19:54 40.37482 31.89787 9025 ft 263 kts 107°
2026-05-06 19:54 40.36971 31.92090 9028 ft 263 kts 107°
2026-05-06 19:55 40.36457 31.94393 9025 ft 263 kts 107°
2026-05-06 19:55 40.35943 31.96697 9025 ft 263 kts 107°
2026-05-06 19:55 40.35428 31.99000 9023 ft 263 kts 107°
2026-05-06 19:55 40.34912 32.01305 9026 ft 264 kts 107°
2026-05-06 19:56 40.34397 32.03608 9030 ft 263 kts 107°
2026-05-06 19:56 40.33881 32.05911 9029 ft 263 kts 107°
2026-05-06 19:56 40.33366 32.08210 9030 ft 263 kts 107°
2026-05-06 19:56 40.32849 32.10512 9031 ft 263 kts 107°
2026-05-06 19:57 40.32526 32.12862 9022 ft 264 kts 90°
2026-05-06 19:57 40.32787 32.15248 9017 ft 265 kts 79°
2026-05-06 19:57 40.33166 32.17617 9024 ft 265 kts 80°
2026-05-06 19:57 40.33448 32.19972 9024 ft 265 kts 84°
2026-05-06 19:58 40.33665 32.22374 9028 ft 266 kts 84°
2026-05-06 19:58 40.33906 32.24775 9028 ft 266 kts 83°
2026-05-06 19:58 40.34163 32.27177 9030 ft 266 kts 83°
2026-05-06 19:58 40.34414 32.29583 9029 ft 266 kts 83°
2026-05-06 19:59 40.34661 32.31987 9027 ft 266 kts 83°
2026-05-06 19:59 40.34908 32.34389 9028 ft 266 kts 84°
2026-05-06 19:59 40.35155 32.36789 9030 ft 266 kts 83°
2026-05-06 19:59 40.35401 32.39193 9030 ft 266 kts 83°
2026-05-06 20:00 40.35648 32.41595 9030 ft 266 kts 83°
2026-05-06 20:00 40.35892 32.44002 9029 ft 267 kts 84°
2026-05-06 20:00 40.36140 32.46408 9026 ft 266 kts 84°
2026-05-06 20:00 40.36385 32.48814 9027 ft 266 kts 84°
2026-05-06 20:01 40.36628 32.51222 9027 ft 267 kts 84°
2026-05-06 20:01 40.36873 32.53635 9025 ft 267 kts 84°
2026-05-06 20:01 40.37117 32.56050 9021 ft 267 kts 84°
2026-05-06 20:01 40.37359 32.58465 9019 ft 267 kts 84°
2026-05-06 20:02 40.37602 32.60874 9023 ft 267 kts 84°
2026-05-06 20:02 40.37846 32.63284 9023 ft 266 kts 84°
2026-05-06 20:02 40.38088 32.65688 9025 ft 266 kts 84°
2026-05-06 20:02 40.38328 32.68097 9023 ft 267 kts 84°
2026-05-06 20:03 40.38569 32.70509 9026 ft 267 kts 84°
2026-05-06 20:03 40.38809 32.72923 9026 ft 267 kts 84°
2026-05-06 20:03 40.39049 32.75347 9028 ft 269 kts 84°
2026-05-06 20:03 40.39302 32.77779 9028 ft 269 kts 81°
2026-05-06 20:04 40.39549 32.80198 8933 ft 267 kts 95°
2026-05-06 20:04 40.39016 32.82408 8659 ft 250 kts 120°
2026-05-06 20:04 40.38086 32.84302 8406 ft 244 kts 125°
2026-05-06 20:04 40.37125 32.86122 8147 ft 241 kts 126°
2026-05-06 20:05 40.36168 32.87916 7887 ft 239 kts 126°
2026-05-06 20:05 40.35212 32.89695 7639 ft 239 kts 126°
2026-05-06 20:05 40.34251 32.91479 7391 ft 240 kts 126°
2026-05-06 20:05 40.33287 32.93265 7145 ft 240 kts 126°
2026-05-06 20:06 40.32326 32.95043 7039 ft 237 kts 126°
2026-05-06 20:06 40.31417 32.96727 6971 ft 217 kts 126°
2026-05-06 20:06 40.30568 32.98300 6715 ft 207 kts 126°
2026-05-06 20:06 40.29750 32.99818 6457 ft 201 kts 126°
2026-05-06 20:07 40.28776 33.01033 6187 ft 196 kts 155°
2026-05-06 20:07 40.27561 33.01690 5956 ft 179 kts 157°
2026-05-06 20:07 40.26519 33.02321 5928 ft 150 kts 156°
2026-05-06 20:07 40.25584 33.02892 5534 ft 148 kts 156°
2026-05-06 20:08 40.24655 33.03457 5257 ft 139 kts 156°
2026-05-06 20:08 40.23843 33.03956 5124 ft 123 kts 156°
2026-05-06 20:08 40.23080 33.04352 5012 ft 108 kts 163°
2026-05-06 20:08 40.22408 33.04659 5014 ft 100 kts 162°
2026-05-06 20:09 40.21711 33.04977 5024 ft 114 kts 162°
2026-05-06 20:09 40.20892 33.05349 4827 ft 133 kts 162°
2026-05-06 20:09 40.20022 33.05691 4582 ft 117 kts 165°
2026-05-06 20:09 40.19315 33.05754 4404 ft 92 kts 204°
2026-05-06 20:10 40.18792 33.05285 4281 ft 96 kts 210°
2026-05-06 20:10 40.18195 33.04757 4154 ft 110 kts 214°
2026-05-06 20:10 40.17536 33.04155 3983 ft 120 kts 215°
2026-05-06 20:10 40.16840 33.03507 3823 ft 124 kts 216°
2026-05-06 20:11 40.16160 33.02857 3667 ft 119 kts 216°
2026-05-06 20:11 40.15497 33.02228 3486 ft 116 kts 215°
2026-05-06 20:11 40.14850 33.01620 3346 ft 112 kts 216°
2026-05-06 20:11 40.14248 33.01048 3241 ft 103 kts 217°
2026-05-06 20:12 40.13714 33.00523 3149 ft 84 kts 217°
2026-05-06 20:12 40.13411 33.00240 3136 ft 12 kts 184°
2026-05-06 20:12 40.13344 33.00307 3135 ft 13 kts 139°
2026-05-06 20:12 40.13278 33.00349 3134 ft 8 kts 171°
2026-05-06 20:13 40.13268 33.00351 3133 ft 7 kts 175°
2026-05-06 20:13 40.13249 33.00365 3133 ft 6 kts 73°
2026-05-06 20:13 40.13319 33.00443 3136 ft 20 kts 37°
2026-05-06 20:13 40.13370 33.00557 3138 ft 17 kts 126°
2026-05-06 20:14 40.13349 33.00643 3140 ft 8 kts 352°
2026-05-06 20:14 40.13431 33.00664 3141 ft 10 kts 31°
2026-05-06 20:14 40.13504 33.00744 3142 ft 19 kts 40°
2026-05-06 20:14 40.13611 33.00862 3145 ft 21 kts 39°
2026-05-06 20:15 40.13636 33.00945 3146 ft 13 kts 165°
2026-05-06 20:15 40.13576 33.01026 3146 ft 0 kts 129°